カタログに戻る

DELTA 2 DEB

運用中HEO
NORAD 38677·DEBRIS·🇺🇸 United States

打ち上げ Mar 15, 2008 から Cape Canaveral Space Force Station

Loading…

次のパス (今後24時間)

TLE

最新Source: Space-Track

元期: Sep 13, 2026, 18:07 UTC

1 38677U 08012D   26256.75552341  .00047403  00000-0  54336-3 0  9997
2 38677  39.9812 133.1268 3914021 347.0601  28.0840  7.72431432 23291

AllMySatでDELTA 2 DEBをリアルタイム追跡

Download on the App Store